User: anonymous   Login
Location: Unspecified
(0.0000°N, 0.0000°E)
Time: 02:58:36
(UTC+00:00)
Language:

Tiros 4 - Orbit

View from above orbital plane
View from above orbital plane
View from above satellite
View from above satellite

Ground track
Ground track

The orbit data is extracted from the following two-line orbital elements,

1   226U 62002A   18171.60759216 -.00000146 +00000-0 +76143-5 0  9992
2   226 048.2954 239.1782 0077741 124.5944 236.2320 14.45623032946132
Epoch (UTC): 20 June 2018 14:34:55
Eccentricity: 0.0077741
inclination: 48.2954°
perigee height: 684 km
apogee height: 795 km
right ascension of ascending node: 239.1782°
argument of perigee: 124.5944°
revolutions per day: 14.45623032
mean anomaly at epoch: 236.2320°
orbit number at epoch: 94613

The dashed part of the orbit path shows where the satellite is in the earth's shadow,  

DLR